OpenBCM V1.07b12 (Linux)

Packet Radio Mailbox

DB0FHN

[JN59NK Nuernberg]

 Login: GUEST





  
ZS6FB  > KEPS     04.05.03 20:42l 168 Lines 7907 Bytes #999 (0) @ AMSAT
BID : ORB03121.N
Read: DB0FHN GUEST
Subj: 2Line Orbital Elements 03121.AMSAT
Path: DB0FHN<DB0ZWI<DB0HDF<DB0HOT<OK0PKL<OK0PPL<RZ6HXA<WA7V<WB0TAX<7M3TJZ<
      TU5EX<F3KT<ZS6FB
Sent: 030502/0831Z @:ZS6FB.MPU.ZAF.AF #:63644 PACTOR-2: XFBB7.04 $:ORB03121.N
From: ZS6FB@ZS6FB.MPU.ZAF.AF
To  : KEPS@AMSAT


HR AMSAT ORBITAL ELEMENTS FOR AMATEUR SATELLITES IN NASA FORMAT
FROM WA5QGD FORT WORTH,TX May 1, 2003
SEND SUBSCRIBE/UNSUBSCRIBE TO majordomo@amsat.org ONLY
BID: ORB03121.N

DECODE 2-LINE ELSETS WITH THE FOLLOWING KEY:
1 AAAAAU 00  0  0 BBBBB.BBBBBBBB  .CCCCCCCC  00000-0  00000-0 0  DDDZ
2 AAAAA EEE.EEEE FFF.FFFF GGGGGGG HHH.HHHH III.IIII JJ.JJJJJJJJKKKKKZ
KEY: A-CATALOGNUM B-EPOCHTIME C-DECAY D-ELSETNUM E-INCLINATION F-RAAN
G-ECCENTRICITY H-ARGPERIGEE I-MNANOM J-MNMOTION K-ORBITNUM Z-CHECKSUM

TO ALL RADIO AMATEURS BT

AO-07
1 07530U 74089B   03120.71951462 -.00000029  00000-0  10000-3 0 01835
2 07530 101.7449 167.7991 0012025 301.3029 058.6866 12.53565312302109
AO-10
1 14129U 83058B   03116.43626042  .00000145  00000-0  10000-3 0  9319
2 14129  26.1009 153.3817 6000972 347.0699   2.7223  2.05867525149412
UO-11
1 14781U 84021B   03121.36797337  .00001816  00000-0  25762-3 0  1351
2 14781  98.1275  95.9092 0009588 348.1120  11.9867 14.78214780 26842
RS-10/11
1 18129U 87054A   03120.94279541  .00000103  00000-0  95571-4 0 02305
2 18129 082.9211 093.7623 0013176 034.7405 325.4606 13.72708764794301
FO-20
1 20480U 90013C   03121.89249311  .00000034  00000-0  15049-3 0  4816
2 20480  99.0564  71.0865 0539256 200.0422 157.8745 12.83332553619790
RS-12/13
1 21089U 91007A   03120.95718452  .00000092  00000-0  80320-4 0 05101
2 21089 082.9195 128.4179 0030969 086.6964 273.7736 13.74411994613596
RS-15
1 23439U 94085A   03120.95675869 -.00000035  00000-0  22099-3 0 07079
2 23439 064.8129 286.0436 0146435 101.2650 260.4773 11.27548761343641
FO-29
1 24278U 96046B   03120.90994380  .00000001  00000-0  36364-4 0 05809
2 24278 098.5499 262.4806 0351455 031.6778 330.4991 13.52879276330951
SO-33
1 25509U 98061B   03121.12511952  .00000656  00000-0  11742-3 0  8352
2 25509  31.4285 109.0540 0357848 207.7899 150.3207 14.27495759235542
AO-40
1 26609U 00072B   03120.91111259 -.00000382  00000-0  10000-3 0  3270
2 26609   8.6079  51.3327 7957274 169.5162 234.2012  1.25597080 11482
UO-14
1 20437U 90005B   03121.71502361  .00000180  00000-0  83547-4 0  2210
2 20437  98.2618 161.8390 0011131 352.8262   7.2761 14.31262976692815
AO-16
1 20439U 90005D   03121.64807825  .00000205  00000-0  92752-4 0  8871
2 20439  98.3038 173.8710 0011047 359.7420   0.3768 14.31501815692843
WO-18
1 20441U 90005F   03121.83444462  .00000165  00000-0  77455-4 0   712
2 20441  98.3187 177.2739 0011797 359.6917   0.4255 14.31582462692920
LO-19
1 20442U 90005G   03121.73471049  .00000187  00000-0  85686-4 0  9991
2 20442  98.3319 180.3316 0012324 358.0994   2.0133 14.31746781692962
UO-22
1 21575U 91050B   03121.39606345  .00000380  00000-0  13591-3 0  7876
2 21575  98.1488 109.9429 0006551 282.5042  77.5414 14.39207526618613
KO-23
1 22077U 92052B   03120.93620512 -.00000037  00000-0  10000-3 0 02066
2 22077 066.0892 336.2754 0015459 257.6207 102.3081 12.86411083503483
AO-27
1 22825U 93061C   03121.80461472  .00000193  00000-0  92386-4 0  5459
2 22825  98.2663 147.7956 0009554  47.8916 312.3075 14.28969504500196
IO-26
1 22826U 93061D   03121.68354698  .00000215  00000-0  10081-3 0  3473
2 22826  98.2656 148.8273 0009863  49.1005 311.1025 14.29195391500222
KO-25
1 22828U 93061F   03121.64673346  .00000197  00000-0  92810-4 0  4858
2 22828  98.2633 149.0564 0010824  27.3642 332.8108 14.29533156468421
TO-31
1 25396U 98043C   03120.94842882 -.00000043  00000-0  00000-0 0 08650
2 25396 098.6141 196.6096 0001702 300.0682 060.0329 14.23533725249686
GO-32
1 25397U 98043D   03120.92782127  .00000074  00000-0  51969-4 0 01834
2 25397 098.6092 195.3800 0000710 351.2422 008.8741 14.22976596249649
UO-36
1 25693U 99021A   03122.02611745  .00000419  00000-0  79627-4 0  9337
2 25693  64.5573 148.9987 0026808 311.5825  48.2983 14.76466046216953
AO-37
1 26065U 00004E   03120.88386301  .00000238  00000-0  10235-3 0  7935
2 26065 100.1984 188.5175 0037975  87.3459 273.2065 14.35543870170616
SO-41
1 26545U 00057A   03121.35122469  .00001207  00000-0  17865-3 0  4460
2 26545  64.5595 171.2699 0046631 227.2963 132.4174 14.79168716139830
MO-46
1 26548U 00057D   03120.58646083  .00001514  00000-0  20844-3 0  4495
2 26548  64.5571 165.7101 0039777 228.2242 131.5459 14.81508750139887
SO-42
1 26549U 00057E   03120.62720844  .00001246  00000-0  18784-3 0 07382
2 26549 064.5499 177.9712 0051251 226.8530 132.8276 14.78096221139641
NO-44
1 26931U 01043C   03121.81782918  .00000283  00000-0  14388-3 0  4636
2 26931  67.0459  69.6076 0006060 274.9521  85.0888 14.29156415 82678
AO-49
1 27605U 02058A   03121.69063663  .00000817  00000-0  15172-3 0  1213
2 27605  64.5555 338.2206 0035032  80.1548 280.3497 14.71485164 19425
SO-50
1 27607U 02058C   03120.73548977  .00001208  00000-0  22058-3 0  1143
2 27607  64.5506 342.0553 0036517  76.9693 283.5474 14.70065485 19265
NOAA-10
1 16969U 86073A   03121.48416447  .00000174  00000-0  89836-4 0  7550
2 16969  98.7361 115.4884 0011578 235.8020 124.2063 14.27093992864169
NOAA-11
1 19531U 88089A   03121.44722776  .00000187  00000-0  12072-3 0  5928
2 19531  98.8917 202.5549 0011625   3.5725 356.5527 14.14572043752960
NOAA-12
1 21263U 91032A   03121.44889307  .00000367  00000-0  17482-3 0   632
2 21263  98.6352 109.9108 0012595 167.5669 192.5824 14.25132444621458
MET-3/5
1 21655U 91056A   03120.93526443  .00000051  00000-0  10000-3 0 05303
2 21655 082.5580 348.4570 0014368 023.3239 336.8531 13.16982946562870
MET-2/21
1 22782U 93055A   03121.05848969  .00000037  00000-0  20017-4 0  5821
2 22782  82.5489 158.2140 0023339 142.7142 217.5641 13.83538554487977
OKEAN-4
1 23317U 94066A   03121.40089236  .00002050  00000-0  25992-3 0  2057
2 23317  82.5385 262.0562 0022792 171.4478 188.7132 14.81117432460738
NOAA-14
1 23455U 94089A   03121.47258211  .00000170  00000-0  11582-3 0  6126
2 23455  99.1823 141.9267 0009864  32.8528 327.3255 14.13325243429637
SICH-1
1 23657U 95046A   03120.91044153  .00001642  00000-0  21222-3 0 00480
2 23657 082.5314 043.2962 0024804 154.8146 205.4279 14.80155941412780
NOAA-15
1 25338U 98030A   03121.46581405  .00000229  00000-0  11752-3 0   983
2 25338  98.5425 141.6559 0011605 106.1625 254.0835 14.24279415258035
RESURS
1 25394U 98043A   03120.95986678  .00000167  00000-0  91667-4 0 05095
2 25394 098.6204 197.5281 0000433 256.0302 104.0828 14.23904636249696
FENGYUN1
1 25730U 99025A   03120.95274522  .00000051  00000-0  51193-4 0 08251
2 25730 098.6271 142.6566 0014718 155.5782 204.6096 14.11742198204704
OKEAN-0
1 25860U 99039A   03120.91021179  .00000833  00000-0  13805-3 0 00521
2 25860 097.8536 166.1016 0001160 115.7946 244.3382 14.72711302203439
NOAA-16
1 26536U 00055A   03121.08434497 -.00000093  00000-0 -26856-4 0  3100
2 26536  98.9119  68.8839 0011390 103.0276 257.2168 14.11944734134249
NOAA-17
1 27453U 02032A   03121.41032923  .00000323  00000-0  16168-3 0  3941
2 27453  98.7448 192.1980 0012338 144.9997 215.1994 14.23339032 44181
HUBBLE
1 20580U 90037B   03120.92007946  .00004723  00000-0  37606-3 0  4106
2 20580  28.4686 294.4327 0003884 299.6352 186.2635 14.98126133513346
UARS
1 21701U 91063B   03122.06337738  .00001051  00000-0  96308-4 0  8834
2 21701  56.9793  98.5920 0005597  85.2022 274.9616 15.03015281636613
PO-34
1 25520U 98064B   03120.35306153  .00003028  00000-0  15116-3 0  6653
2 25520  28.4581 112.2398 0005668  43.0532 317.0506 15.14247904248320
ISS
1 25544U 98067A   03121.84293310  .00028691  00000-0  36890-3 0  9510
2 25544  51.6322 253.0933 0006576  72.9949  64.2544 15.58821515253770
WO-39
1 26061U 00004A   03121.32166205  .00000718  00000-0  25538-3 0  8251
2 26061 100.1940 191.6590 0035660  76.8580 283.6577 14.37915935170842
OO-38
1 26063U 00004C   03121.20723332  .00000200  00000-0  89214-4 0  7741
2 26063 100.1960 188.7302 0037438  84.9118 275.6332 14.35513599170664
NO-45
1 26932U 01043D   03121.22736217  .00000149  00000-0  90700-4 0  4570
2 26932  67.0523  70.8165 0003995 271.1541  88.9099 14.29322906 82619


Read previous mail | Read next mail


 19.09.2025 22:30:47lGo back Go up